Regional Weather Roundup
Issued by NWS

Home | Current Version | Previous Version | Text Only | Print | Product List | Glossary Off
Versions: 1 2 3 4 5 6 7 8 9 10 11 12 13 14 15 16 17 18 19 20 21 22 23 24 25 26 27 28 29 30 31 32 33 34 35 36 37 38 39 40 41 42 43 44 45 46 47 48 49 50

000
ASUS43 KIND 231509
RWRIN

WEATHER ROUNDUP FOR INDIANA
NATIONAL WEATHER SERVICE INDIANAPOLIS IN
1100 AM EDT SAT JUL 23 2016

NOTE: "FAIR" INDICATES FEW OR NO CLOUDS BELOW 12,000 FEET WITH NO
SIGNIFICANT WEATHER AND/OR OBSTRUCTIONS TO VISIBILITY.

* - STATION DOES NOT REPORT WEATHER SUCH AS PRECIPITATION OR FOG.

+ - STATION NOT QUALITY CONTROLLED BY THE NATIONAL WEATHER SERVICE.
    USE DATA WITH CAUTION...ESPECIALLY DEWPOINT AND RELATIVE
    HUMIDITY OBSERVATIONS.

INZ001>003-010>013-019-020-231600-
NORTHWEST INDIANA

CITY           SKY/WX    TMP DP  RH WIND       PRES   REMARKS
GARY /AIRPORT/ PTSUNNY   86  84  94 CALM      29.99  HX 108
KNOX *+        CLOUDY    81  70  69 CALM      30.00S
LA PORTE +     MOSUNNY   85  85  99 CALM      30.01R HX 107
MICHIGAN CITY+ PTSUNNY   82  81  94 NW5       30.00S HX  95
MONTICELLO +   MOSUNNY   83  73  71 S5        30.00F
RENSSELAER +   SUNNY     82  77  83 CALM      30.00F
VALPARAISO     PTSUNNY   85  76  74 NE3       30.01R

$$

LMZ046-743>745-231600-
SOUTHERN LAKE MICHIGAN

STATION/POSITION TIME  TEMP    WIND        PRES    WAVE
                       AIR SEA DIR/SP/G            HT
                 (UTC) (F)     (DEG/KT/KT) (MB)    (FT)
BURNS HARBOR     1400   79     270/  4/  5 1015.9F
MICHIGAN CITY    1400   78     210/  6/  7   N/A
5NW MICH CITY    1400   78 75  200/  4/  4   N/A     0

$$

INZ004-005-014>016-021>024-231600-
NORTH CENTRAL INDIANA

CITY           SKY/WX    TMP DP  RH WIND       PRES   REMARKS
ELKHART        SUNNY     86  75  70 CALM      30.00F HX  95
GOSHEN         SUNNY     87  68  52 CALM      30.00F
LOGANSPORT +   MOSUNNY   81  73  78 S5        30.02F
PERU/GRISSOM   MOSUNNY   84  76  77 SW5       30.00F
ROCHESTER +    MOSUNNY   86  79  79 CALM      30.01S HX  99
SOUTH BEND     SUNNY     85  74  69 VRB3      30.01S
WARSAW +       PTSUNNY   84  73  70 SW3       30.00F

$$

INZ006>009-017-018-025>027-231600-
NORTHEAST INDIANA

CITY           SKY/WX    TMP DP  RH WIND       PRES   REMARKS
ANGOLA *+        N/A     82  77  83 S3        30.00F
AUBURN +       SUNNY     82  68  61 CALM      30.01F
FORT WAYNE     MOSUNNY   84  73  69 CALM      30.00F
HUNTINGTON +   MOSUNNY  N/A N/A N/A SW3       30.00F

$$

INZ028-029-035-036-043>045-051>053-231600-
WEST CENTRAL INDIANA

CITY           SKY/WX    TMP DP  RH WIND       PRES   REMARKS
CRAWFORDSVL +  MOSUNNY   82  77  85 NW3       30.03F
GREENCASTLE +  MOSUNNY   82  77  83 CALM      30.04S
LAFAYETTE      PTSUNNY   81  75  82 VRB3      30.01S
TERRE HAUTE    PTSUNNY   83  75  77 VRB3      30.03S

$$

INZ030>032-037>040-046>048-054>057-064-065-231600-
CENTRAL INDIANA

CITY           SKY/WX    TMP DP  RH WIND       PRES   REMARKS
ANDERSON       MOSUNNY   82  73  74 VRB3      30.04S
COLUMBUS       MOSUNNY   81  79  94 S3        30.04S
FRANKFORT +    CLOUDY    87  77  73 CALM      30.04F HX  98
INDIANAPOLIS   PTSUNNY   84  74  71 VRB6      30.03F
-EAGLE CREEK   MOSUNNY   85  73  67 CALM      30.02F
KOKOMO *+      PTSUNNY   82  72  69 CALM      30.01F
MARION +       CLOUDY    82  74  77 CALM      30.02F HAZE
MT COMFORT *+  MOSUNNY   84  73  70 CALM      30.03F
SHELBYVILLE    MOSUNNY   85  73  67 CALM      30.03S
ZIONSVILLE +   MOSUNNY   80  74  82 CALM      30.04F

$$

INZ033-034-041-042-049-050-058-059-231600-
EAST CENTRAL INDIANA

CITY           SKY/WX    TMP DP  RH WIND       PRES   REMARKS
MUNCIE         MOSUNNY   85  73  67 NW5       30.03F

$$

INZ060-061-067>069-081>083-085>088-231600-
SOUTHWEST INDIANA

CITY           SKY/WX    TMP DP  RH WIND       PRES   REMARKS
EVANSVILLE     SUNNY     83  74  74 SE6       30.01S
HUNTINGBURG *+ SUNNY     82  73  74 SE8       30.01F
WASHINGTON +   CLOUDY    81  80  95 MISG      30.01F

$$

INZ062-063-066-070>080-084-089>092-231600-
SOUTH CENTRAL AND SOUTHEAST INDIANA

CITY           SKY/WX    TMP DP  RH WIND       PRES   REMARKS
BLOOMINGTON    MOSUNNY   81  74  79 S6        30.04S
MADISON *+     MOSUNNY   84  72  65 CALM      30.06S
NORTH VERNON + MOSUNNY   84  79  84 CALM      30.05S HX  96
SEYMOUR +      MOSUNNY   84  77  79 CALM      30.03S

$$




USA.gov is the U.S. government's official web portal to all federal, state and local government web resources and services.